Home » » Clasificacion Open de Murcia VI Maratón Zig Zag

Clasificacion Open de Murcia VI Maratón Zig Zag


Esta es la clasificación, gracias al club organizador de la prueba, de la pasada edición VI Maratón Extrem Zig Zag, disputada en Cieza valedera para el Open de Murcia 2009, en la que venció Francisco Ortiz "Kiko".

Clasificación VI Maratón Extrem Zig Zag

1 268 03:02:40,966 ORTIZ MONTES, FRANCISCO
2 293 03:10:01,685 ORTIGOSA SÁNCHEZ, JUAN ANTONIO
3 324 03:10:08,950 SIMON MOYA, JUAN JOSE
4 314 03:10:23,200 CANTERO GARCÍA, MIGUEL ANGEL
5 238 03:12:22,450 NAVARRO MANZANARES, TOMÁS
6 294 03:12:30,310 ALVAREZ CEDILLO, RUBEN
7 269 03:15:06,747 TOVAR ORTUÑO, ANTONIO
8 325 03:16:45,903 ARCAS NAVARRO, JOSE
9 262 03:18:04,544 MULERO RUIZ, FRANCISCO DANIEL
10 304 03:18:48,247 CARRILLO MARTINEZ, JESUS
11 318 03:19:32,875 CEGARRA NAVARRO, ANTONIO RAFAEL
12 319 03:21:59,528 LOPEZ RUBIO, GINES
13 249 03:22:02,450 TORRENTE GARCIA, PEDRO
14 317 03:22:09,388 MARTINEZ ROBLES, DAVID
15 285 03:23:11,403 MOLINA DELGADO, FABIÁN
16 274 03:25:54,388 LÓPEZ NAVARRO, JESUS
17 244 03:28:05,794 MUÑOZ FEREZ, JOAQUIN
18 229 03:29:32,528 CANOVAS DIAZ, FRANCISCO
19 284 03:29:52,341 ILLAN MAIQUEZ, ROMUALDO
20 276 03:30:07,403 MARTINEZ YAGO, JOSE PASCUAL
21 261 03:30:11,778 MOLINA FRANCO, JOSE MARIA
22 307 03:31:21,513 IBAÑEZ FERNANDEZ, SALVADOR
23 255 03:32:35,263 PEREZ CONTRERAS, JOSE ANTONIO
24 252 03:32:51,872 SOLER ROJAS, MIGUEL
25 311 03:34:25,591 GARCIA PRLLICER, FRANCISCO
26 206 03:34:55,341 CÁMARA LÓPEZ, PEDRO
27 316 03:35:24,356 MEDINA MARTINEZ, FRANCISCO
28 265 03:37:37,125 COSTA GIL, JUAN DANIEL
29 248 03:38:42,185 JIMENEZ SANCHEZ, JOSE
30 271 03:39:07,731 PUJANTE GARRES, SALVADOR
31 281 03:40:26,481 CANOVAS GARCIA, JUAN ANTONIO
32 320 03:41:42,935 PEREZ MOLINA, RAIMUNDO
33 313 03:41:54,562 ROMERA ROMERA, PEDRO
34 211 03:42:26,544 CARRILLO MARTINEZ, JUAN
35 204 03:43:45,935 GARCIA ZAMORA, DANIEL
36 287 03:44:15,356 RODRÍGUEZ GARCÍA, FRANCISCO
37 305 03:44:41,437 BLEDA ABELLAN, JOSE ANDRES
38 327 03:48:04,919 ESCRIVANO MORENO, JAVIER
39 272 03:48:13,513 ORTUÑO MARTINEZ, PEDRO
40 323 03:50:05,653 DE RAMOS NUÑEZ, JOSE
41 292 03:54:49,903 PEREZ PORTUGUES, JOSE VICTOR
42 214 03:54:56,872 LOPEZ PINA, JOSE ANTONIO
43 251 03:55:53,325 MATEOS GRIS, MIGUEL ANGEL
44 312 03:55:57,747 GARCIA SANCHEZ, ANTONIO
45 247 03:57:05,700 ILLAN SANCHEZ, FULGENCIO
46 267 03:58:18,513 BARRANCOS SALAS, ANTONIO ANGEL
47 224 03:58:21,450 MARTINEZ LARIO, JUAN FRANCISCO
48 232 03:59:33,216 ORTUÑO PUCHE, JAVIER
49 234 04:00:50,591 ROJAS ABELLAN, JOSE MANUEL
50 205 04:01:40,685 ORTUÑO PUCHE, FRANCISCO
51 264 04:01:42,669 PLANES MARIN, PEDRO
52 200 04:04:12,841 ARTERO LOPEZ, VICENTE JOSE
53 263 04:06:06,606 SANCHEZ GARCIA, PEDRO JOSE
54 212 04:09:58,466 VAZQUEZ GUARDIOLA, DIEGO
55 326 04:10:56,341 CONESA CARRILLO, JOSE
56 250 04:11:02,731 PUERTA GARCIA, TOMAS
57 233 04:12:54,419 SILES LURQUI, ANTONIO
58 299 04:13:15,872 CANO HERNÁNDEZ, RUBÉN
60 260 04:14:30,950 GOMEZ OLIVER, FRANCISCO DE ASIS
61 254 04:15:28,419 FLORES MICOL, PEDRO ANGEL
62 245 04:16:22,341 ALVAREZ MARIN, SALVADOR MANUEL
63 266 04:16:25,810 LOPEZ ROS, JAVIER
64 288 04:17:32,763 MOLINA CAMPOS, CARLOS
65 298 04:17:35,513 HARO MATURANA, MARIA JOSE
66 237 04:19:32,138 JIMENEZ LORENZO, ANTONIO
67 228 04:22:28,122 JUAREZ CASES, JOSE EDUARDO
68 201 04:23:32,481 VERA PEREZ, JUAN PEDRO
69 283 04:23:36,591 ORTIN AVILES, JESUS
70 297 04:25:10,403 NAVARRO RODRIGUEZ, DIEGO JOSE
71 253 04:26:30,966 GONZALEZ GÓMEZ, MIGUEL ALFONSO
72 282 04:29:39,888 ACOSTA AVILES, MIGUEL
73 273 04:30:33,122 SOBRADO CALVO, CRISTINA
74 210 04:34:19,138 MOROTE MOLLA, RUBEN
75 222 04:34:23,372 GARCÍA GRACIA, GREGORIO
76 235 04:37:00,341 FERNANDEZ SORIANO, PEDRO ANTONIO
77 215 04:38:24,356 MARTINEZ GARCIA, FRANCISCO
78 216 04:38:27,731 CORTES LOPEZ, ANTONIO
79 241 04:41:10,435 CONESA PÍÑÓN, SANTIAGO
80 231 04:41:31,981 MARROQUI CAMPILLO, JOSE ANTONIO
81 230 04:41:33,153 GARCIA COSTA, FRANCISCO
82 239 04:43:27,466 GARCIA MARTINEZ, JOAQUIN
83 279 04:44:15,560 MELCHOR AGGERI, JOSE ENRIQUE
84 221 04:44:59,794 GARCIA CAÑAL, LUIS
85 277 04:47:44,872 SAORIN ROS, PEDRO
86 278 04:47:47,981 PEREZ JULIA, BARTOLOME
87 280 04:48:47,403 TOLEDO HERNANDEZ, JOSE
88 302 04:54:03,312 FERNÁNDEZ FERNÁNDEZ, ALEJANDRO
89 213 04:13:49,919 FERNANDEZ EGEA, DAVID
89 275 04:56:01,200 MILLAN SANCHEZ, ALFONSO CARLOS
90 223 04:56:05,294 MANZANARES MARTÍNEZ, MIGUEL
91 259 04:57:31,591 GIL LOPEZ, VICTOR
92 217 05:10:12,778 CARRILLO HERNANDEZ, MIGUEL ANGEL
93 308 05:28:13,435 GARCIA CEREZO, JOSE
94 303 05:37:05,403 FERNÁNDEZ RUIZ, FRANCISCO
95 242 06:07:50,247 VALERO MORENO, RAFAEL
96 236 06:07:54,763 SÁNCHEZ BISQUERT, DAVID
97 290 06:10:01,000 SANCHEZ LOPEZ, JOSE ANTONIO
(Fuera de control)
98 291 06:10:02,000 ORTIZ MARTINEZ, FRANCISCO
(Fuera de control)
99 306 06:10:03,000 BELDA COSTAS, OLEGARIO
(Fuera de control)
100 240 06:10:04,000 PINA PEREZ, DIEGO
(Fuera de control)
101 310 06:10:05,000 MOLINA LOPEZ, ANDRES
(Fuera de control)
102 202 06:10:06,000 ÑIGUEZ NAVARRO, JOSE MANUEL
(Fuera de control)
103 203 06:10:07,000 RAMIREZ CUNEO, ANTONIO
(Fuera de control)
104 296 06:10:08,000 DE SAN PEDRO MANZANERA, PEDRO FRANCISCO
(Fuera de control)
105 258 06:10:09,000 FERRER BELCHI, JAVIER
(Fuera de control)
106 289 06:10:10,000 LIDON VAL, DAVID
(Fuera de control)
107 322 06:10:11,000 SANCHEZ GARCIA, MIGUEL ANGEL
(Fuera de control)
108 286 06:10:12,000 SALINAS RUIZ, FRANCISCO
(Fuera de control)
109 208 06:10:13,000 GONZÁLEZ GONZÁLEZ, JOSE ANTONIO GARCIA NORTES
(Fuera de control)
Comparte ésta Noticia ... :

Publicar un comentario

 
Soporte: Murciabike
Copyright © 2012. Murciabike - Todos los derechos reservados
Web creada por GesproeM Plantilla de Mas Template
Iniciar sesión Identifícate